Weather History for Devils Lake, ND

Change the Weather History Date:

Friday, January 17, 2014

  Actual Average Record
Temperature  
Mean Temperature 12 °F -  
Max Temperature 32 °F 18 °F 46 °F (1972)
Min Temperature -7 °F -1 °F -31 °F (1962)
Degree Days  
Heating Degree Days 52    
Moisture  
Dew Point 3 °F    
Average Humidity 70    
Maximum Humidity 80    
Minimum Humidity 55    
Precipitation  
Precipitation 0.00 in - - ()
Sea Level Pressure  
Sea Level Pressure 29.80 in    
Wind  
Wind Speed 7 mph (SSW)    
Max Wind Speed 29 mph    
Max Gust Speed 33 mph    
Visibility 9 miles    
Events      
Averages and records for this station are not official NWS values.
T = Trace of Precipitation, MM = Missing Value Source: NWS Daily Summary

Daily Weather History Graph

Daily Weather History Graph

Search for Another Location

Airport:

Trip Planner

Search our weather history database for the weather conditions in past years. The results will help you decide how hot, cold, wet, or windy it might be!

Date:

Astronomy

Jan. 17, 2014 Rise Set
Actual Time 8:19 AM CST 5:12 PM CST
Civil Twilight 7:44 AM CST 5:47 PM CST
Nautical Twilight 7:05 AM CST 6:26 PM CST
Astronomical Twilight 6:28 AM CST 7:03 PM CST
Moon 7:12 PM CST 8:37 AM CST
Length of Visible Light 10h 03m
Length of Day
8h 53m
Full, 98% of the Moon is Illuminated
Jan 17
Full
Jan 23
Last Quarter
Jan 30
New
Feb 6
First Quarter
Feb 14
Full

Hourly Weather History & Observations

Time (CST) Temp. Windchill Dew Point Humidity Pressure Visibility Wind Dir Wind Speed Gust Speed Precip Events Conditions
12:15 AM -2.2 °F -12.5 °F -11.2 °F 66% 30.10 in 10.0 mi NW 4.6 mph - N/A   Clear
12:35 AM -2.2 °F -12.5 °F -11.2 °F 66% 30.08 in 10.0 mi NNW 4.6 mph - N/A   Clear
12:55 AM -2.2 °F -14.2 °F -14.8 °F 55% 30.09 in 10.0 mi WNW 5.8 mph - N/A   Clear
1:15 AM -4.0 °F -14.6 °F -13.0 °F 65% 30.08 in 10.0 mi NW 4.6 mph - N/A   Clear
1:35 AM -5.8 °F - -14.8 °F 65% 30.07 in 10.0 mi Calm Calm - N/A   Clear
1:55 AM -2.2 °F -14.2 °F -11.2 °F 66% 30.07 in 10.0 mi WNW 5.8 mph - N/A   Clear
2:15 AM -4.0 °F - -16.6 °F 55% 30.06 in 10.0 mi Calm Calm - N/A   Clear
2:35 AM -5.8 °F - -13.0 °F 71% 30.06 in 10.0 mi Calm Calm - N/A   Clear
2:55 AM -4.0 °F - -14.8 °F 60% 30.05 in 10.0 mi Calm Calm - N/A   Clear
3:15 AM -2.2 °F - -11.2 °F 66% 30.05 in 10.0 mi Calm Calm - N/A   Clear
3:35 AM -2.2 °F - -11.2 °F 66% 30.05 in 10.0 mi Calm Calm - N/A   Clear
3:55 AM -4.0 °F - -13.0 °F 65% 30.04 in 10.0 mi Calm Calm - N/A   Clear
4:15 AM -5.8 °F - -14.8 °F 65% 30.04 in 10.0 mi Calm Calm - N/A   Clear
4:35 AM -7.6 °F - -16.6 °F 65% 30.03 in 10.0 mi Calm Calm - N/A   Clear
4:55 AM -5.8 °F -14.5 °F -14.8 °F 65% 30.03 in 10.0 mi South 3.5 mph - N/A   Clear
5:15 AM -7.6 °F -16.5 °F -16.6 °F 65% 30.02 in 10.0 mi South 3.5 mph - N/A   Clear
5:35 AM -2.2 °F -12.5 °F -11.2 °F 66% 30.01 in 10.0 mi SSW 4.6 mph - N/A   Clear
5:55 AM -2.2 °F - - N/A% 30.00 in 10.0 mi Calm Calm - N/A   Clear
6:15 AM -2.2 °F -12.5 °F -13.0 °F 60% 30.00 in 10.0 mi SSE 4.6 mph - N/A   Clear
6:35 AM -2.2 °F - -11.2 °F 66% 30.00 in 10.0 mi Calm Calm - N/A   Clear
6:55 AM -2.2 °F -12.5 °F -13.0 °F 60% 30.00 in 10.0 mi South 4.6 mph - N/A   Clear
7:15 AM -2.2 °F - -11.2 °F 66% 29.98 in 10.0 mi Calm Calm - N/A   Clear
7:35 AM -4.0 °F -12.4 °F -14.8 °F 60% 29.97 in 10.0 mi SSE 3.5 mph - N/A   Clear
7:55 AM -2.2 °F -10.4 °F -9.4 °F 71% 29.97 in 10.0 mi SSE 3.5 mph - N/A   Clear
8:15 AM -2.2 °F -12.5 °F -9.4 °F 71% 29.96 in 10.0 mi SSE 4.6 mph - N/A   Clear
8:35 AM -0.4 °F -10.4 °F -9.4 °F 66% 29.95 in 10.0 mi SSE 4.6 mph - N/A   Clear
8:55 AM -2.2 °F -12.5 °F -9.4 °F 71% 29.94 in 10.0 mi SE 4.6 mph - N/A   Clear
9:15 AM 1.4 °F -9.9 °F -7.6 °F 66% 29.94 in 10.0 mi SSE 5.8 mph - N/A   Clear
9:35 AM 1.4 °F -11.3 °F -7.6 °F 66% 29.93 in 10.0 mi SE 6.9 mph - N/A   Clear
9:55 AM 3.2 °F -7.8 °F -4.0 °F 72% 29.93 in 10.0 mi SE 5.8 mph - N/A   Clear
10:15 AM 5.0 °F -5.6 °F -2.2 °F 72% 29.93 in 10.0 mi SSE 5.8 mph - N/A   Clear
10:35 AM 6.8 °F -3.5 °F -0.4 °F 72% 29.92 in 10.0 mi South 5.8 mph - N/A   Clear
10:55 AM 8.6 °F -1.3 °F 1.4 °F 73% 29.92 in 10.0 mi SSE 5.8 mph - N/A   Clear
11:15 AM 10.4 °F 2.2 °F 1.4 °F 67% 29.91 in 10.0 mi SE 4.6 mph - N/A   Clear
11:35 AM 12.2 °F -0.2 °F 3.2 °F 67% 29.89 in 10.0 mi SSE 9.2 mph - N/A   Clear
11:55 AM 14.0 °F 3.9 °F 5.0 °F 67% 29.88 in 10.0 mi SSE 6.9 mph - N/A   Clear
12:15 PM 15.8 °F 3.4 °F 6.8 °F 68% 29.86 in 10.0 mi SSE 10.4 mph - N/A   Clear
12:35 PM 17.6 °F 5.0 °F 8.6 °F 68% 29.85 in 10.0 mi South 11.5 mph - N/A   Clear
12:55 PM 17.6 °F 5.7 °F 8.6 °F 68% 29.82 in 10.0 mi South 10.4 mph - N/A   Partly Cloudy
1:15 PM 17.6 °F 4.3 °F 8.6 °F 68% 29.80 in 10.0 mi SSE 12.7 mph - N/A   Clear
1:35 PM 17.6 °F 5.0 °F 8.6 °F 68% 29.78 in 10.0 mi South 11.5 mph - N/A   Clear
1:55 PM 19.4 °F 9.5 °F 8.6 °F 63% 29.79 in 10.0 mi South 8.1 mph - N/A   Partly Cloudy
2:15 PM 19.4 °F 10.4 °F 10.4 °F 68% 29.79 in 10.0 mi SW 6.9 mph - N/A   Mostly Cloudy
2:35 PM 19.4 °F 10.4 °F 10.4 °F 68% 29.79 in 10.0 mi South 6.9 mph - N/A   Overcast
2:55 PM 19.4 °F 8.6 °F 10.4 °F 68% 29.76 in 10.0 mi SSE 9.2 mph - N/A   Overcast
3:15 PM 19.4 °F 6.6 °F 10.4 °F 68% 29.74 in 10.0 mi South 12.7 mph - N/A   Overcast
3:35 PM 19.4 °F 6.6 °F 10.4 °F 68% 29.71 in 8.0 mi South 12.7 mph - N/A   Overcast
3:55 PM 19.4 °F 6.6 °F 12.2 °F 74% 29.70 in 10.0 mi South 12.7 mph - N/A   Overcast
4:15 PM 21.2 °F 9.5 °F 12.2 °F 68% 29.69 in 7.0 mi South 11.5 mph - N/A   Overcast
4:35 PM 21.2 °F 10.1 °F 12.2 °F 68% 29.69 in 6.0 mi South 10.4 mph - N/A   Overcast
4:55 PM 21.2 °F 10.9 °F 14.0 °F 74% 29.68 in 6.0 mi South 9.2 mph - N/A   Overcast
5:15 PM 21.2 °F 9.5 °F 14.0 °F 74% 29.67 in 10.0 mi South 11.5 mph - N/A   Overcast
5:35 PM 21.2 °F 8.3 °F 15.8 °F 80% 29.65 in 10.0 mi South 13.8 mph - N/A   Overcast
5:55 PM 21.2 °F 9.5 °F 15.8 °F 80% 29.64 in 5.0 mi South 11.5 mph - N/A   Overcast
6:15 PM 21.2 °F 7.8 °F 15.8 °F 80% 29.61 in 3.0 mi South 15.0 mph - N/A   Overcast
6:35 PM 23.0 °F 10.1 °F 17.6 °F 80% 29.59 in 5.0 mi South 15.0 mph - N/A   Overcast
6:55 PM 24.8 °F 11.1 °F 17.6 °F 74% 29.58 in 10.0 mi SSW 18.4 mph - N/A   Overcast
7:15 PM 24.8 °F 12.4 °F 17.6 °F 74% 29.56 in 10.0 mi SSW 15.0 mph - N/A   Overcast
7:35 PM 24.8 °F 12.9 °F 17.6 °F 74% 29.54 in 10.0 mi SSW 13.8 mph - N/A   Overcast
7:55 PM 24.8 °F 11.5 °F 17.6 °F 74% 29.51 in 10.0 mi SSW 17.3 mph - N/A   Overcast
8:15 PM 24.8 °F 11.9 °F 17.6 °F 74% 29.49 in 10.0 mi SW 16.1 mph - N/A   Overcast
8:35 PM 26.6 °F 14.3 °F 19.4 °F 74% 29.47 in 10.0 mi WSW 16.1 mph - N/A   Overcast
8:55 PM 28.4 °F 17.0 °F 21.2 °F 74% 29.45 in 10.0 mi WSW 15.0 mph - N/A   Overcast
9:15 PM 28.4 °F 15.8 °F 21.2 °F 74% 29.44 in 8.0 mi West 18.4 mph 24.2 mph N/A   Mostly Cloudy
9:35 PM 30.2 °F 16.5 °F 24.8 °F 80% 29.43 in 7.0 mi WNW 24.2 mph 31.1 mph N/A   Overcast
9:55 PM 30.2 °F 17.1 °F 24.8 °F 80% 29.42 in 2.0 mi WNW 21.9 mph - N/A   Overcast
10:15 PM 30.2 °F 15.4 °F 24.8 °F 80% 29.42 in 2.5 mi WNW 28.8 mph 33.4 mph N/A   Mostly Cloudy
10:35 PM 30.2 °F 16.2 °F 24.8 °F 80% 29.41 in 4.0 mi NW 25.3 mph - N/A   Overcast
10:55 PM 30.2 °F 16.2 °F 24.8 °F 80% 29.41 in 2.0 mi NW 25.3 mph - N/A   Overcast
11:15 PM 30.2 °F 17.1 °F 24.8 °F 80% 29.41 in 3.0 mi NW 21.9 mph - N/A   Overcast
11:35 PM 32.0 °F 19.2 °F 24.8 °F 75% 29.40 in 5.0 mi NW 23.0 mph - N/A   Overcast
11:55 PM 32.0 °F 19.5 °F 24.8 °F 75% 29.40 in 4.0 mi NW 21.9 mph - N/A   Overcast